Volver al catálogo

KUIPER-00086

ActivoComunicacionesLEO
NORAD 64832·PAYLOAD·🇺🇸 United States

Lanzado Jul 16, 2025 desde Cape Canaveral Space Force Station

Loading…

Próximos Pases (próximas 24 horas)

TLE

ActualizadoSource: CelesTrak SupGP

Época: Sep 14, 2026, 22:31 UTC

1 64832C 25151S   26257.93850694 -.00002254  00000+0 -29515-3 0  2579
2 64832  51.8998 181.2575 0000976  88.9959 222.6280 14.79924302    18

Sigue KUIPER-00086 en tiempo real con AllMySat

Download on the App Store